Weather History for Luxor, Egypt

Change the Weather History Date:

Tuesday, September 3, 2013

  Actual Average Record
Temperature  
Mean Temperature 90 °F -  
Max Temperature 102 °F 98 °F 107 °F (1998)
Min Temperature 78 °F 71 °F 71 °F (1997)
Cooling Degree Days 25    
Growing Degree Days 40 (Base 50)    
Moisture  
Dew Point 67 °F    
Average Humidity 45    
Maximum Humidity 61    
Minimum Humidity 4    
Precipitation  
Precipitation 0.00 in 0.00 in - ()
Sea Level Pressure  
Sea Level Pressure 29.79 in    
Wind  
Wind Speed 2 mph ()    
Max Wind Speed 7 mph    
Max Gust Speed -    
Visibility 6.0 miles    
Events      
Averages and records for this station are not official NWS values.
T = Trace of Precipitation, MM = Missing Value Source: Averaged Metar Reports

Daily Weather History Graph

Daily Weather History Graph

Search for Another Location

Airport:

Trip Planner

Search our weather history database for the weather conditions in past years. The results will help you decide how hot, cold, wet, or windy it might be!

Date:

Astronomy

Sep. 03, 2013 Rise Set
Actual Time 5:30 AM EET 6:06 PM EET
Civil Twilight 5:07 AM EET 6:29 PM EET
Nautical Twilight 4:39 AM EET 6:56 PM EET
Astronomical Twilight 4:11 AM EET 7:24 PM EET
Moon 3:31 AM EET (9/3) 4:38 PM EET (9/3)
Length of Visible Light 13h 22m
Length of Day
12h 36m
Waning Crescent, 4% of the Moon is Illuminated
Sep 3
Waning Crescent
Sep 5
New
Sep 12
First Quarter
Sep 19
Full
Sep 27
Last Quarter

Hourly Weather History & Observations

Time (EET) Temp. Heat Index Dew Point Humidity Pressure Visibility Wind Dir Wind Speed Gust Speed Precip Events Conditions
12:00 AM 82.4 °F 84.6 °F 66.2 °F 58% 29.80 in - Calm Calm - N/A   Clear
1:00 AM 80.6 °F 82.7 °F 66.2 °F 61% 29.80 in - Calm Calm - N/A   Clear
2:00 AM 80.6 °F 82.7 °F 66.2 °F 61% 29.80 in - Calm Calm - N/A   Clear
3:00 AM 78.8 °F - 64.4 °F 61% 29.80 in - Calm Calm - N/A   Clear
4:00 AM 78.8 °F - 64.4 °F 61% 29.80 in - South 2.3 mph - N/A   Clear
5:00 AM 80.6 °F 82.3 °F 64.4 °F 58% 29.80 in - Calm Calm - N/A   Clear
6:00 AM 78.8 °F - 64.4 °F 61% 29.83 in - Calm Calm - N/A   Clear
7:00 AM 82.4 °F 84.6 °F 66.2 °F 58% 29.83 in - Calm Calm - N/A   Clear
8:00 AM 86.0 °F 89.4 °F 68.0 °F 55% 29.83 in - South 2.3 mph - N/A   Clear
9:00 AM 89.6 °F 93.4 °F 68.0 °F 49% 29.83 in - Calm Calm - N/A   Clear
10:00 AM 93.2 °F 97.7 °F 68.0 °F 44% 29.83 in - Calm Calm - N/A   Clear
11:00 AM 95.0 °F 101.3 °F 69.8 °F 44% 29.83 in - West 3.5 mph - N/A   Clear
12:00 PM 96.8 °F 103.1 °F 69.8 °F 41% 29.80 in - WNW 5.8 mph - N/A   Clear
1:00 PM 100.4 °F 106.3 °F 68.0 °F 35% 29.77 in - NW 2.3 mph - N/A   Clear
2:00 PM 101 °F - 66 °F 23% 29.75 in 6 mi WNW 5.8 mph - -  
2:00 PM 102.2 °F 106.9 °F 66.2 °F 31% 29.77 in - WNW 5.8 mph - N/A   Clear
3:00 PM 102.2 °F 106.9 °F 66.2 °F 31% 29.74 in - West 2.3 mph - N/A   Clear
4:00 PM 102.2 °F 105.5 °F 64.4 °F 29% 29.74 in - West 4.6 mph - N/A   Clear
5:00 PM 100.4 °F 109.3 °F 71.6 °F 39% 29.74 in - WNW 6.9 mph - N/A   Clear
6:00 PM 95.0 °F 99.5 °F 68.0 °F 41% 29.74 in - West 6.9 mph - N/A   Clear
7:00 PM 93.2 °F 97.7 °F 68.0 °F 44% 29.74 in - West 6.9 mph - N/A   Clear
8:00 PM 199 °F - 67 °F 4% 29.77 in 6 mi SW 4.6 mph - -  
8:00 PM 91.4 °F 95.4 °F 68.0 °F 46% 29.77 in - SW 4.6 mph - N/A   Clear
9:00 PM 89.6 °F 93.4 °F 68.0 °F 49% 29.80 in - SW 2.3 mph - N/A   Clear
10:00 PM 87.8 °F 90.4 °F 66.2 °F 49% 29.80 in - WSW 2.3 mph - N/A   Clear
11:00 PM 87.8 °F 90.4 °F 66.2 °F 49% 29.80 in - Calm Calm - N/A   Clear